Regional Weather Roundup
Issued by NWS Cleveland, OH

Home | Current Version | Previous Version | Graphics & Text | Print | Product List | Glossary On
Versions: 1 2 3 4 5 6 7 8 9 10 11 12 13 14 15 16 17 18 19 20 21 22 23 24 25 26 27 28 29 30 31 32 33 34 35 36 37 38 39 40 41 42 43 44 45 46 47 48 49 50
000
ASUS41 KCLE 231812
RWRCLE
OHIO REGIONAL WEATHER ROUNDUP
NATIONAL WEATHER SERVICE WILMINGTON, OH
200 PM EDT FRI JUN 23 2017

NOTE: "FAIR" INDICATES FEW OR NO CLOUDS BELOW 12,000 FEET WITH NO
SIGNIFICANT WEATHER AND/OR OBSTRUCTIONS TO VISIBILITY.

OHZ001>008-015>018-024>027-034-035-043-044-231900-
   NORTHWEST OHIO

CITY           SKY/WX    TMP DP  RH WIND       PRES   REMARKS
DEFIANCE       FAIR      73  68  84 SW13      29.68R
FINDLAY        LGT RAIN  72  68  87 SW17      29.66S
TOLEDO EXPRESS FAIR      75  69  81 SW9       29.63R
TOLEDO EXEC    FAIR      76  70  82 SW17      29.64R
LIMA           RAIN      67  67 100 S9        29.68F FOG
$$

OHZ009>014-019>023-028>033-038-089-231900-
   NORTHEAST OHIO

CITY           SKY/WX    TMP DP  RH WIND       PRES   REMARKS
CLE-HOPKINS    LGT RAIN  75  71  87 SW15G22   29.64R
CLE-LAKEFRONT  CLOUDY    75  71  87 S18G25    29.59S
CUY CO. ARPT   CLOUDY    77  73  88 SW12      29.62S
LORAIN-ELYRIA  LGT RAIN  72  66  81 SW21G26   29.62F
ASHTABULA      LGT RAIN  74  73  97 S8        29.62F
AKRON-CANTON   RAIN      71  67  87 SW13      29.68F VSB 1
WOOSTER        LGT RAIN  70  68  93 SW13      29.70R
MANSFIELD      LGT RAIN  69  69 100 S14       29.68F
YOUNGSTOWN     TSTM      70  68  93 SW13      29.67S FOG
$$

OHZ042-051>053-060>062-070>072-077>081-231900-
  SOUTHWEST OHIO

CITY           SKY/WX    TMP DP  RH WIND       PRES   REMARKS
CINC-COVINGTON LGT RAIN  73  71  93 W22G37    29.76R FOG
CINC-LUNKEN    LGT RAIN  76  74  93 W16G23    29.74R
HAMILTON       RAIN      74  74 100 SW8       29.74S FOG
DAYTON         HVY RAIN  67  66  97 NW7       29.76F VSB 3/4
WRIGHT-PAT AFB LGT RAIN  68  68 100 CALM      29.75F FOG
DAYTON GENERAL LGT RAIN  75  72  90 NW6       29.74S
WILMINGTON     HVY RAIN  73  73 100 W14       29.75R FOG
$$

OHZ036-037-039>041-045>050-054>059-063>069-073>076-082>088-231900-
  CENTRAL AND SOUTHEAST OHIO

CITY           SKY/WX    TMP DP  RH WIND       PRES   REMARKS
COLUMBUS       LGT RAIN  76  74  93 SW21G30   29.68F FOG
OSU AIRPORT    LGT RAIN  71  71 100 SW16      29.72R
BOLTON FIELD   LGT RAIN  70  68  94 W8        29.74R
RICKENBACK AFB CLOUDY    75  73  92 W24       29.70F
NEWARK         CLOUDY    75  72  90 SW8       29.71F
MARION         RAIN      70  68  93 SW5       29.71S FOG
LANCASTER      PTSUNNY   79  72  79 SW16      29.71F
ZANESVILLE     PTSUNNY   78  73  84 W7        29.72S
NEW PHILLY     HVY RAIN  71  69  93 W9G24     29.72R VSB 3/4
$$



USA.gov is the U.S. government's official web portal to all federal, state and local government web resources and services.